Location: Rounton
(54.4000°N, 1.3500°W)
Time: 00:39:53
(UTC+00:00)

Tiros 1 despin weight - Pass Details

Date: 03 October 2023
Orbit: 583 x 628 km, 48.2° (Epoch: 28 November)

Event Time Altitude Azimuth Distance (km) Brightness Sun altitude
Rises 21:21:56 0° 245° (WSW) 2,869 ? -24.0°
Reaches altitude 10° 21:24:23 10° 237° (WSW) 1,957 ? -24.3°
Enters shadow 21:26:48 26° 213° (SSW) 1,198 ? -24.6°
